[Iaude] MPEC L86: 2024 LW1 [a=1.45,e=0.26,i=8.0,H=23.9]
    mpec at cfa.harvard.edu 
    mpec at cfa.harvard.edu
       
    Fri Jun  7 20:47:46 EDT 2024
    
    
  
M.P.E.C. 2024-L86                                  Issued 2024 June 8, 00:46 UT
     The Minor Planet Electronic Circulars contain information on unusual
         minor planets, routine data on comets and natural satellites,
         and occasional editorial announcements.  They are published
    on behalf of Division F of the International Astronomical Union by the
          Minor Planet Center, Smithsonian Astrophysical Observatory,
                          Cambridge, MA 02138, U.S.A.
			  
             Prepared using the Tamkin Foundation Computer Network
                              MPC at CFA.HARVARD.EDU
            URL https://www.minorplanetcenter.net/    ISSN 1523-6714
                                    2024 LW1                                    
Observations:
     K24L01W* C2024 06 06.46524115 29 54.873+21 05 58.18         21.89wXEL086F51
     K24L01W  C2024 06 06.48356715 29 55.938+21 06 58.18         21.50wXEL086F51
     K24L01W  C2024 06 06.49646815 29 56.675+21 07 40.44         22.03wXEL086F51
     K24L01W  C2024 06 06.55611215 30 00.422+21 10 54.41         21.52GVEL086F51
     K24L01W  C2024 06 06.55676015 30 00.476+21 10 56.79         21.55GVEL086F51
     K24L01W 2C2024 06 06.92121515 30 33.986+21 31 18.52         20.1 GVEL086J04
     K24L01W 1C2024 06 06.98703 15 30 36.37 +21 34 34.3          21.9 VXEL086033
     K24L01W 1C2024 06 06.99067 15 30 36.60 +21 34 46.8          21.2 VXEL086033
     K24L01W 1C2024 06 06.99431 15 30 36.85 +21 34 58.4          21.7 VXEL086033
     K24L01W KC2024 06 07.11949415 30 49.44 +21 42 06.6          21.9 GVEL086H21
     K24L01W KC2024 06 07.12789215 30 49.96 +21 42 35.3          21.6 GVEL086H21
     K24L01W KC2024 06 07.13638015 30 50.46 +21 43 03.5          21.6 GVEL086H21
     K24L01W 1C2024 06 08.00986 15 31 58.71 +22 30 44.3          21.9 VXEL086033
     K24L01W 1C2024 06 08.01351 15 31 58.95 +22 30 56.4          21.4 VXEL086033
     K24L01W 1C2024 06 08.01717 15 31 59.22 +22 31 08.1          21.7 VXEL086033
Observer details:
033 Karl Schwarzschild Observatory, Tautenburg.  Observers C. Heogner, F.
    Ludwig, M. Hartmann, B. Stecklum.  Measurer B. Stecklum.  1.34-m f/3
    Schmidt + CCD.
F51 Pan-STARRS 1, Haleakala.  Observers J. Herman, T. Lowe, P. Minguez, A.
    Schultz, I. Smith.  Measurers K. Chambers, T. de Boer, J. Fairlamb, H.
    Gao, M. Huber, C.-C. Lin, E. Magnier, Y. Ramanjooloo, R. Wainscoat, R.
    Weryk.  1.8-m Ritchey-Chretien + CCD.
H21 Astronomical Research Observatory, Westfield.  Observer R. Holmes.
    Measurers T. Linder, R. Holmes, L. Horn.  0.76-m f/3.0 astrograph + CCD.
J04 ESA Optical Ground Station, Tenerife.  Observers D. Abreu, M. Micheli, F.
    Ocana, L. Conversi.  Measurers M. Micheli, R. Kresken, F. Ocana.
    1.0-m f/4.4 reflector + CCD.
Orbital elements:
2024 LW1                                                 Earth MOID = 0.1332 AU
Epoch 2024 Mar. 31.0 TT = JDT 2460400.5                 MPC                     
M 301.05693              (2000.0)            P               Q                  
n   0.56727510     Peri.   71.45604     +0.30591427     +0.94842532             
a   1.4452409      Node   216.68880     -0.91753178     +0.27040121             
e   0.2557106      Incl.    7.99516     -0.25407066     +0.16544665             
P   1.74           H   23.94          G   0.15           U   8                  
Residuals in seconds of arc
240606 F51  0.0   0.1+    240606 J04  0.3+  0.3+    240607 H21  0.1+  0.5+
240606 F51  0.3+  0.1-    240606 033  0.1-  0.4-    240607 H21  0.0   0.3+
240606 F51  0.0   0.1-    240606 033  0.2-  0.1+    240608 033  0.1+  0.3-
240606 F51  0.1-  0.1-    240606 033  0.0   0.2-    240608 033  0.1-  0.1+
240606 F51  0.0   0.2+    240607 H21  0.2-  0.0     240608 033  0.1+  0.1+
Ephemeris:
2024 LW1                 a,e,i = 1.45, 0.26, 8                   q = 1.0757
Date    TT    R. A. (2000) Decl.     Delta      r    Elong.  Phase     V
2024 05 09    15 11 34.3 -07 06 41   0.1893  1.1963   169.6     8.7    21.3
...
2024 05 24    15 17 35.4 +07 29 09   0.1570  1.1507   149.6    26.5    21.4
...
2024 06 01    15 23 49.9 +15 46 23   0.1494  1.1298   138.2    36.7    21.6
...
2024 06 07    15 30 38.7 +21 35 46   0.1470  1.1160   130.5    43.7    21.7
2024 06 08    15 31 59.5 +22 30 41   0.1469  1.1139   129.3    44.8    21.7
2024 06 09    15 33 24.3 +23 24 31   0.1468  1.1118   128.1    45.9    21.7
...
2024 06 15    15 43 19.0 +28 22 59   0.1471  1.1004   121.8    51.7    21.9
...
2024 06 23    16 00 29.2 +33 51 39   0.1493  1.0884   115.3    57.6    22.1
...
2024 07 08    16 44 09.4 +40 29 10   0.1557  1.0764   108.5    63.6    22.3
A. U. Tomatic                (C) Copyright 2024 MPC           M.P.E.C. 2024-L86
    
    
More information about the Iaude
mailing list